This is the latest recevied weather packets stored in our database for station/object JQ1YUX-13. If no packets are shown the sender has not sent any weather packets the latest 10 day(s).
| Time | Temp. | Humidity | Pressure | Rain* | Wind** | Luminosity | Snow |
|---|---|---|---|---|---|---|---|
| 1777682584 | 23.89° C | 55% | 1003.2 hPa | 0 mm | - | - | - |
| 1777681684 | 22.78° C | 58% | 1003.1 hPa | 0 mm | - | - | - |
| 1777680785 | 22.22° C | 57% | 1003 hPa | 0 mm | - | - | - |
| 1777679885 | 21.67° C | 59% | 1003.2 hPa | 0 mm | - | - | - |
| 1777678986 | 21.11° C | 61% | 1003.1 hPa | 0 mm | - | - | - |
| 1777678084 | 20° C | 65% | 1002.7 hPa | 0 mm | - | - | - |
| 1777677185 | 20° C | 65% | 1002.4 hPa | 0 mm | - | - | - |
| 1777676285 | 19.44° C | 63% | 1002.2 hPa | 0 mm | - | - | - |
| 1777675386 | 18.33° C | 65% | 1001.9 hPa | 0 mm | - | - | - |
| 1777674486 | 17.78° C | 65% | 1001.7 hPa | 0 mm | - | - | - |
| 1777673584 | 17.78° C | 66% | 1001.6 hPa | 0 mm | - | - | - |
| 1777672686 | 17.78° C | 65% | 1001.2 hPa | 0 mm | - | - | - |
| 1777671784 | 17.78° C | 65% | 1000.8 hPa | 0 mm | - | - | - |
| 1777670885 | 17.78° C | 65% | 1000.4 hPa | 0 mm | - | - | - |
| 1777669985 | 17.78° C | 65% | 1000.2 hPa | 0 mm | - | - | - |
| 1777669086 | 17.78° C | 64% | 999.9 hPa | 0 mm | - | - | - |
| 1777668184 | 17.78° C | 64% | 999.7 hPa | 0 mm | - | - | - |
| 1777667285 | 17.22° C | 66% | 999.2 hPa | 0 mm | - | - | - |
| 1777666385 | 16.11° C | 73% | 999.1 hPa | 0 mm | - | - | - |
| 1777665486 | 14.44° C | 82% | 998.8 hPa | 0 mm | - | - | - |
| 1777664584 | 14.44° C | 83% | 998.6 hPa | 0 mm | - | - | - |
| 1777663685 | 14.44° C | 81% | 998.2 hPa | 0 mm | - | - | - |
| 1777662785 | 14.44° C | 81% | 997.9 hPa | 0 mm | - | - | - |
| 1777661885 | 15° C | 80% | 997.4 hPa | 0 mm | - | - | - |
| 1777660985 | 15° C | 80% | 996.7 hPa | 0 mm | - | - | - |
* Rain latest hour (hover to see other rain measurements)
** Current wind speed in m/s (hover to see current wind gust speed)